Starlink 1738

operational
NORAD ID: 46336 Int'l Des: 2020-062 Owner: SPXS Country: US Constellation: starlink
LEOCIRCULAR

About Starlink 1738

Description loading...

Live Position

Loading 3D Globe...

Upcoming Passes

Altitude History

Altitude vs Time

uPlot chart will show altitude changes over time

Two-Line Element Set

1 46336U 20062M 25303.73317235 .00126822 00000-0 26390-2 0 9999
2 46336 53.0484 199.0885 0014298 64.9482 295.3006 15.44610994285299
Epoch: Oct 30, 2025 • Age: 8 hours

Current Status

Altitude 425.5 km
Velocity 7.66 km/s
Sub-Earth Point 17.81°N, 149.97°E
Launch Date Sep 3, 2020
Age 5.1 years
Type internet

Technical Details

Classification Payload
Mass 260.00 kg
Dry Mass 248.00 kg
Total Mass 260.00 kg
Length 0.20 m
Diameter 2.80 m
Span 9.00 m
Shape Box + pan
Manufacturer SPXS
Bus Type Starlink
Phase Status In Orbit
Owner/State SPXS/US

Large Constellations

Loading constellations...